Time,TemperatureF,DewpointF,PressureIn,WindDirection,WindDirectionDegrees,WindSpeedMPH,WindSpeedGustMPH,Humidity,HourlyPrecipIn,Conditions,Clouds,dailyrainin,SoftwareType,DateUTC
2013-02-20 00:01:00,29.9,13.9,30.26,NW,312,4.6,4.6,51,0.00,CLR,,0.00,WeatherDisplay:10.37,2013-02-20 06:01:00,
2013-02-20 00:06:00,29.8,13.9,30.26,NW,325,2.3,2.3,51,0.00,CLR,,0.00,WeatherDisplay:10.37,2013-02-20 06:06:00,
2013-02-20 00:11:00,29.7,14.2,30.26,NNW,331,1.1,1.1,52,0.00,CLR,,0.00,WeatherDisplay:10.37,2013-02-20 06:11:00,
2013-02-20 00:16:00,29.6,14.1,30.26,NW,321,3.5,3.5,52,0.00,CLR,,0.00,WeatherDisplay:10.37,2013-02-20 06:16:00,
2013-02-20 00:21:00,29.5,14.0,30.26,NNW,334,2.3,2.3,52,0.00,CLR,,0.00,WeatherDisplay:10.37,2013-02-20 06:21:00,
2013-02-20 00:26:00,29.3,14.3,30.26,NW,312,3.5,3.5,53,0.00,CLR,,0.00,WeatherDisplay:10.37,2013-02-20 06:26:00,
2013-02-20 00:31:00,29.2,14.2,30.27,NW,326,2.3,2.3,53,0.00,CLR,,0.00,WeatherDisplay:10.37,2013-02-20 06:31:00,
2013-02-20 00:36:00,29.2,14.2,30.27,NW,325,3.5,3.5,53,0.00,CLR,,0.00,WeatherDisplay:10.37,2013-02-20 06:36:00,
2013-02-20 00:41:00,29.0,14.0,30.27,NW,314,0.0,0.0,53,0.00,CLR,,0.00,WeatherDisplay:10.37,2013-02-20 06:41:00,
2013-02-20 00:46:00,28.9,13.9,30.27,NNW,336,3.5,3.5,53,0.00,CLR,,0.00,WeatherDisplay:10.37,2013-02-20 06:46:00,
2013-02-20 00:51:00,28.9,13.9,30.27,NNW,346,5.8,5.8,53,0.00,CLR,,0.00,WeatherDisplay:10.37,2013-02-20 06:51:00,
2013-02-20 00:56:00,29.0,13.6,30.27,NW,317,5.8,5.8,52,0.00,CLR,,0.00,WeatherDisplay:10.37,2013-02-20 06:56:00,
2013-02-20 01:01:00,29.0,13.1,30.28,NW,325,5.8,5.8,51,0.00,CLR,,0.00,WeatherDisplay:10.37,2013-02-20 07:01:00,
2013-02-20 01:06:00,29.0,13.6,30.28,NW,316,5.8,5.8,52,0.00,CLR,,0.00,WeatherDisplay:10.37,2013-02-20 07:06:00,
2013-02-20 01:11:00,28.9,13.5,30.27,NNW,348,4.0,4.0,52,0.00,CLR,,0.00,WeatherDisplay:10.37,2013-02-20 07:11:00,
2013-02-20 01:16:00,28.9,13.5,30.26,NNW,339,4.6,4.6,52,0.00,CLR,,0.00,WeatherDisplay:10.37,2013-02-20 07:16:00,
2013-02-20 01:21:00,28.8,13.4,30.27,NW,304,3.5,3.5,52,0.00,CLR,,0.00,WeatherDisplay:10.37,2013-02-20 07:21:00,
2013-02-20 01:26:00,28.7,13.7,30.27,North,5,3.5,3.5,53,0.00,CLR,,0.00,WeatherDisplay:10.37,2013-02-20 07:26:00,
2013-02-20 01:31:00,28.6,13.6,30.27,NNW,327,2.3,2.3,53,0.00,CLR,,0.00,WeatherDisplay:10.37,2013-02-20 07:31:00,
2013-02-20 01:36:00,28.5,13.5,30.26,North,355,4.6,4.6,53,0.00,CLR,,0.00,WeatherDisplay:10.37,2013-02-20 07:36:00,
2013-02-20 01:41:00,28.4,13.4,30.26,NNW,344,2.3,2.3,53,0.00,CLR,,0.00,WeatherDisplay:10.37,2013-02-20 07:41:00,
2013-02-20 01:46:00,28.3,13.3,30.26,NW,323,3.5,3.5,53,0.00,CLR,,0.00,WeatherDisplay:10.37,2013-02-20 07:46:00,
2013-02-20 01:51:00,28.3,13.8,30.26,NNW,340,3.0,3.0,54,0.00,CLR,,0.00,WeatherDisplay:10.37,2013-02-20 07:51:00,
2013-02-20 01:56:00,28.2,13.7,30.27,North,355,3.5,3.5,54,0.00,CLR,,0.00,WeatherDisplay:10.37,2013-02-20 07:56:00,
2013-02-20 02:05:00,28.1,13.6,30.26,NNW,331,1.1,1.1,54,0.00,CLR,,0.00,WeatherDisplay:10.37,2013-02-20 08:05:00,
2013-02-20 02:10:00,27.9,13.8,30.26,NNW,331,0.0,0.0,55,0.00,CLR,,0.00,WeatherDisplay:10.37,2013-02-20 08:10:00,
2013-02-20 02:15:00,27.7,14.0,30.26,North,5,2.3,2.3,56,0.00,CLR,,0.00,WeatherDisplay:10.37,2013-02-20 08:15:00,
2013-02-20 02:20:00,27.5,14.6,30.26,North,5,2.3,2.3,58,0.00,CLR,,0.00,WeatherDisplay:10.37,2013-02-20 08:20:00,
2013-02-20 02:25:00,27.3,15.2,30.26,North,5,1.1,1.1,60,0.00,CLR,,0.00,WeatherDisplay:10.37,2013-02-20 08:25:00,
2013-02-20 02:30:00,27.0,15.3,30.26,North,5,1.1,1.1,61,0.00,CLR,,0.00,WeatherDisplay:10.37,2013-02-20 08:30:00,
2013-02-20 02:35:00,26.9,15.6,30.26,NNW,338,3.5,3.5,62,0.00,CLR,,0.00,WeatherDisplay:10.37,2013-02-20 08:35:00,
2013-02-20 02:40:00,26.8,15.1,30.26,NNW,346,5.0,5.0,61,0.00,CLR,,0.00,WeatherDisplay:10.37,2013-02-20 08:40:00,
2013-02-20 02:45:00,26.9,14.9,30.26,NNW,331,3.5,3.5,60,0.00,CLR,,0.00,WeatherDisplay:10.37,2013-02-20 08:45:00,
2013-02-20 02:50:00,27.0,14.6,30.26,NW,321,4.6,4.6,59,0.00,CLR,,0.00,WeatherDisplay:10.37,2013-02-20 08:50:00,
2013-02-20 02:55:00,27.0,14.6,30.26,NNW,334,5.0,5.0,59,0.00,CLR,,0.00,WeatherDisplay:10.37,2013-02-20 08:55:00,
2013-02-20 03:00:00,26.9,14.5,30.26,North,355,5.8,5.8,59,0.00,CLR,,0.00,WeatherDisplay:10.37,2013-02-20 09:00:00,
2013-02-20 03:05:00,26.9,14.1,30.26,NW,306,4.0,4.0,58,0.00,CLR,,0.00,WeatherDisplay:10.37,2013-02-20 09:05:00,
2013-02-20 03:10:00,26.9,14.1,30.26,NNW,334,3.5,3.5,58,0.00,CLR,,0.00,WeatherDisplay:10.37,2013-02-20 09:10:00,
2013-02-20 03:15:00,26.8,14.0,30.26,NNW,338,2.3,2.3,58,0.00,CLR,,0.00,WeatherDisplay:10.37,2013-02-20 09:15:00,
2013-02-20 03:20:00,26.7,13.9,30.26,NW,314,1.1,1.1,58,0.00,CLR,,0.00,WeatherDisplay:10.37,2013-02-20 09:20:00,
2013-02-20 03:25:00,26.6,14.2,30.26,NW,314,1.1,1.1,59,0.00,CLR,,0.00,WeatherDisplay:10.37,2013-02-20 09:25:00,
2013-02-20 03:30:00,26.5,14.9,30.26,NNW,343,0.0,0.0,61,0.00,CLR,,0.00,WeatherDisplay:10.37,2013-02-20 09:30:00,
2013-02-20 03:35:00,26.3,15.0,30.26,NNW,343,0.0,0.0,62,0.00,CLR,,0.00,WeatherDisplay:10.37,2013-02-20 09:35:00,
2013-02-20 03:40:00,26.1,15.2,30.26,NNW,343,0.0,0.0,63,0.00,CLR,,0.00,WeatherDisplay:10.37,2013-02-20 09:40:00,
2013-02-20 03:45:00,26.0,15.1,30.27,North,5,2.3,2.3,63,0.00,CLR,,0.00,WeatherDisplay:10.37,2013-02-20 09:45:00,
2013-02-20 03:50:00,25.9,14.7,30.27,WNW,292,3.5,0.0,62,0.00,CLR,,0.00,WeatherDisplay:10.37,2013-02-20 09:50:00,
2013-02-20 03:55:00,25.8,14.6,30.27,NW,318,3.5,3.5,62,0.00,CLR,,0.00,WeatherDisplay:10.37,2013-02-20 09:55:00,
2013-02-20 04:00:00,25.7,14.1,30.28,NW,317,3.5,3.5,61,0.00,CLR,,0.00,WeatherDisplay:10.37,2013-02-20 10:00:00,
2013-02-20 04:05:00,25.7,13.7,30.28,North,355,1.1,1.1,60,0.00,CLR,,0.00,WeatherDisplay:10.37,2013-02-20 10:05:00,
2013-02-20 04:10:00,25.7,13.3,30.28,NNW,334,0.0,0.0,59,0.00,CLR,,0.00,WeatherDisplay:10.37,2013-02-20 10:10:00,
2013-02-20 04:15:00,25.6,13.2,30.28,NNE,24,1.1,0.0,59,0.00,CLR,,0.00,WeatherDisplay:10.37,2013-02-20 10:15:00,
2013-02-20 04:20:00,25.6,13.2,30.28,NW,320,0.0,0.0,59,0.00,CLR,,0.00,WeatherDisplay:10.37,2013-02-20 10:20:00,
2013-02-20 04:25:00,25.4,13.1,30.29,NNW,327,1.1,1.1,59,0.00,CLR,,0.00,WeatherDisplay:10.37,2013-02-20 10:25:00,
2013-02-20 04:30:00,25.3,13.0,30.29,WNW,294,2.0,2.0,59,0.00,CLR,,0.00,WeatherDisplay:10.37,2013-02-20 10:30:00,
2013-02-20 04:35:00,25.3,13.0,30.29,NW,323,2.3,2.3,59,0.00,CLR,,0.00,WeatherDisplay:10.37,2013-02-20 10:35:00,
2013-02-20 04:40:00,25.2,12.9,30.29,NW,326,3.5,3.5,59,0.00,CLR,,0.00,WeatherDisplay:10.37,2013-02-20 10:40:00,
2013-02-20 04:45:00,25.2,12.9,30.29,NW,326,1.1,1.1,59,0.00,CLR,,0.00,WeatherDisplay:10.37,2013-02-20 10:45:00,
2013-02-20 04:50:00,25.2,12.9,30.29,NW,320,1.1,1.1,59,0.00,CLR,,0.00,WeatherDisplay:10.37,2013-02-20 10:50:00,
2013-02-20 04:55:00,25.2,12.5,30.28,NNW,327,1.1,0.0,58,0.00,CLR,,0.00,WeatherDisplay:10.37,2013-02-20 10:55:00,
2013-02-20 05:00:00,25.2,12.5,30.29,NW,324,2.3,0.0,58,0.00,CLR,,0.00,WeatherDisplay:10.37,2013-02-20 11:00:00,
2013-02-20 05:05:00,25.1,12.8,30.28,NW,326,2.3,2.3,59,0.00,CLR,,0.00,WeatherDisplay:10.37,2013-02-20 11:05:00,
2013-02-20 05:10:00,25.0,12.7,30.28,NW,326,1.0,0.0,59,0.00,CLR,,0.00,WeatherDisplay:10.37,2013-02-20 11:10:00,
2013-02-20 05:15:00,25.0,12.7,30.28,NW,326,1.1,1.1,59,0.00,CLR,,0.00,WeatherDisplay:10.37,2013-02-20 11:15:00,
2013-02-20 05:20:00,24.9,12.6,30.28,NW,310,2.0,2.0,59,0.00,CLR,,0.00,WeatherDisplay:10.37,2013-02-20 11:20:00,
2013-02-20 05:25:00,24.9,12.6,30.28,NW,326,3.5,3.5,59,0.00,CLR,,0.00,WeatherDisplay:10.37,2013-02-20 11:25:00,
2013-02-20 05:30:00,24.9,12.6,30.28,NW,304,1.1,1.1,59,0.00,CLR,,0.00,WeatherDisplay:10.37,2013-02-20 11:30:00,
2013-02-20 05:35:00,24.8,12.5,30.28,NW,325,3.5,0.0,59,0.00,CLR,,0.00,WeatherDisplay:10.37,2013-02-20 11:35:00,
2013-02-20 05:40:00,24.7,12.0,30.27,NW,323,2.3,2.3,58,0.00,CLR,,0.00,WeatherDisplay:10.37,2013-02-20 11:40:00,
2013-02-20 05:45:00,24.7,12.0,30.27,NW,325,3.5,3.5,58,0.00,CLR,,0.00,WeatherDisplay:10.37,2013-02-20 11:45:00,
2013-02-20 05:50:00,24.7,12.0,30.28,NW,321,1.1,1.1,58,0.00,CLR,,0.00,WeatherDisplay:10.37,2013-02-20 11:50:00,
2013-02-20 05:55:00,24.7,12.0,30.28,NW,326,1.1,1.1,58,0.00,CLR,,0.00,WeatherDisplay:10.37,2013-02-20 11:55:00,
2013-02-20 06:00:00,24.6,11.9,30.28,NNW,338,1.1,1.1,58,0.00,CLR,,0.00,WeatherDisplay:10.37,2013-02-20 12:00:00,
2013-02-20 06:05:00,24.6,12.3,30.28,NNW,337,2.3,2.3,59,0.00,CLR,,0.00,WeatherDisplay:10.37,2013-02-20 12:05:00,
2013-02-20 06:10:00,24.6,12.3,30.28,NNW,329,4.6,4.6,59,0.00,CLR,,0.00,WeatherDisplay:10.37,2013-02-20 12:10:00,
2013-02-20 06:15:00,24.6,12.3,30.28,WNW,302,3.5,3.5,59,0.00,CLR,,0.00,WeatherDisplay:10.37,2013-02-20 12:15:00,
2013-02-20 06:20:00,24.7,12.4,30.28,NNW,329,1.1,1.1,59,0.00,CLR,,0.00,WeatherDisplay:10.37,2013-02-20 12:20:00,
2013-02-20 06:25:00,24.7,12.0,30.28,North,350,2.3,2.3,58,0.00,CLR,,0.00,WeatherDisplay:10.37,2013-02-20 12:25:00,
2013-02-20 06:30:00,24.7,12.4,30.28,NNW,329,2.0,2.0,59,0.00,CLR,,0.00,WeatherDisplay:10.37,2013-02-20 12:30:00,
2013-02-20 06:35:00,24.6,12.3,30.29,NW,321,3.5,3.5,59,0.00,CLR,,0.00,WeatherDisplay:10.37,2013-02-20 12:35:00,
2013-02-20 06:40:00,24.6,12.3,30.29,NW,325,2.3,2.3,59,0.00,CLR,,0.00,WeatherDisplay:10.37,2013-02-20 12:40:00,
2013-02-20 06:45:00,24.6,12.3,30.29,WNW,300,0.0,0.0,59,0.00,CLR,,0.00,WeatherDisplay:10.37,2013-02-20 12:45:00,
2013-02-20 06:50:00,24.6,12.3,30.29,WNW,301,1.1,0.0,59,0.00,CLR,,0.00,WeatherDisplay:10.37,2013-02-20 12:50:00,
2013-02-20 06:55:00,24.6,12.7,30.29,WNW,302,1.1,0.0,60,0.00,CLR,,0.00,WeatherDisplay:10.37,2013-02-20 12:55:00,
2013-02-20 07:00:00,24.6,12.7,30.30,NW,321,1.1,1.1,60,0.00,CLR,,0.00,WeatherDisplay:10.37,2013-02-20 13:00:00,
2013-02-20 07:05:00,24.6,12.7,30.31,NNW,336,2.3,2.3,60,0.00,CLR,,0.00,WeatherDisplay:10.37,2013-02-20 13:05:00,
2013-02-20 07:10:00,24.7,12.8,30.31,NNW,331,1.1,1.1,60,0.00,CLR,,0.00,WeatherDisplay:10.37,2013-02-20 13:10:00,
2013-02-20 07:15:00,24.8,12.9,30.31,North,5,3.5,3.5,60,0.00,CLR,,0.00,WeatherDisplay:10.37,2013-02-20 13:15:00,
2013-02-20 07:20:00,24.9,13.3,30.30,North,355,2.3,2.3,61,0.00,CLR,,0.00,WeatherDisplay:10.37,2013-02-20 13:20:00,
2013-02-20 07:25:00,25.0,13.4,30.30,NNW,343,3.5,3.5,61,0.00,CLR,,0.00,WeatherDisplay:10.37,2013-02-20 13:25:00,
2013-02-20 07:30:00,25.2,14.0,30.30,NNW,329,3.5,3.5,62,0.00,CLR,,0.00,WeatherDisplay:10.37,2013-02-20 13:30:00,
2013-02-20 07:35:00,25.3,13.7,30.31,NNW,336,3.0,3.0,61,0.00,CLR,,0.00,WeatherDisplay:10.37,2013-02-20 13:35:00,
2013-02-20 07:41:00,25.4,13.4,30.31,North,5,3.5,3.5,60,0.00,CLR,,0.00,WeatherDisplay:10.37,2013-02-20 13:41:00,
2013-02-20 07:46:00,25.5,13.9,30.31,North,5,3.5,3.5,61,0.00,CLR,,0.00,WeatherDisplay:10.37,2013-02-20 13:46:00,
2013-02-20 07:51:00,25.5,13.5,30.32,North,5,3.5,3.5,60,0.00,CLR,,0.00,WeatherDisplay:10.37,2013-02-20 13:51:00,
2013-02-20 07:56:00,25.5,13.5,30.32,NNE,25,4.0,4.0,60,0.00,CLR,,0.00,WeatherDisplay:10.37,2013-02-20 13:56:00,
2013-02-20 08:01:00,25.5,12.8,30.32,NNE,19,4.6,4.6,58,0.00,CLR,,0.00,WeatherDisplay:10.37,2013-02-20 14:01:00,
2013-02-20 08:06:00,25.5,13.1,30.33,NW,325,2.3,2.3,59,0.00,CLR,,0.00,WeatherDisplay:10.37,2013-02-20 14:06:00,
2013-02-20 08:11:00,25.7,13.3,30.33,North,5,2.3,2.3,59,0.00,CLR,,0.00,WeatherDisplay:10.37,2013-02-20 14:11:00,
2013-02-20 08:16:00,25.7,12.9,30.33,NNE,25,3.5,3.5,58,0.00,CLR,,0.00,WeatherDisplay:10.37,2013-02-20 14:16:00,
2013-02-20 08:21:00,25.7,13.3,30.34,North,10,2.3,2.3,59,0.00,CLR,,0.00,WeatherDisplay:10.37,2013-02-20 14:21:00,
2013-02-20 08:26:00,25.9,13.1,30.34,NW,325,2.3,2.3,58,0.00,CLR,,0.00,WeatherDisplay:10.37,2013-02-20 14:26:00,
2013-02-20 08:31:00,26.0,13.2,30.34,North,360,3.5,3.5,58,0.00,CLR,,0.00,WeatherDisplay:10.37,2013-02-20 14:31:00,
2013-02-20 08:36:00,26.1,13.3,30.34,North,5,3.5,3.5,58,0.00,CLR,,0.00,WeatherDisplay:10.37,2013-02-20 14:36:00,
2013-02-20 08:41:00,26.1,13.7,30.34,North,355,3.5,3.5,59,0.00,CLR,,0.00,WeatherDisplay:10.37,2013-02-20 14:41:00,
2013-02-20 08:46:00,26.2,13.8,30.34,North,5,2.3,2.3,59,0.00,CLR,,0.00,WeatherDisplay:10.37,2013-02-20 14:46:00,
2013-02-20 08:51:00,26.2,13.4,30.35,North,5,3.5,3.5,58,0.00,CLR,,0.00,WeatherDisplay:10.37,2013-02-20 14:51:00,
2013-02-20 08:56:00,26.2,13.4,30.35,North,355,2.3,2.3,58,0.00,CLR,,0.00,WeatherDisplay:10.37,2013-02-20 14:56:00,
2013-02-20 09:01:00,26.3,13.9,30.35,NNW,335,2.3,2.3,59,0.00,CLR,,0.00,WeatherDisplay:10.37,2013-02-20 15:01:00,
2013-02-20 09:06:00,26.5,13.7,30.35,North,355,2.3,2.3,58,0.00,CLR,,0.00,WeatherDisplay:10.37,2013-02-20 15:06:00,
2013-02-20 09:11:00,26.6,14.2,30.35,North,355,2.3,2.3,59,0.00,CLR,,0.00,WeatherDisplay:10.37,2013-02-20 15:11:00,
2013-02-20 09:16:00,26.7,13.9,30.36,North,5,1.1,1.1,58,0.00,CLR,,0.00,WeatherDisplay:10.37,2013-02-20 15:16:00,
2013-02-20 09:21:00,26.7,13.9,30.36,NW,323,3.5,3.5,58,0.00,CLR,,0.00,WeatherDisplay:10.37,2013-02-20 15:21:00,
2013-02-20 09:26:00,26.7,13.9,30.36,NW,318,3.5,3.5,58,0.00,CLR,,0.00,WeatherDisplay:10.37,2013-02-20 15:26:00,
2013-02-20 09:31:00,26.9,14.1,30.36,NNW,344,3.5,3.5,58,0.00,CLR,,0.00,WeatherDisplay:10.37,2013-02-20 15:31:00,
2013-02-20 09:36:00,27.0,14.2,30.35,NW,325,1.1,0.0,58,0.00,CLR,,0.00,WeatherDisplay:10.37,2013-02-20 15:36:00,
2013-02-20 09:41:00,27.1,13.9,30.36,NW,325,0.0,0.0,57,0.00,CLR,,0.00,WeatherDisplay:10.37,2013-02-20 15:41:00,
2013-02-20 09:46:00,27.2,14.0,30.36,NNW,328,2.3,2.3,57,0.00,CLR,,0.00,WeatherDisplay:10.37,2013-02-20 15:46:00,
2013-02-20 09:51:00,27.2,13.6,30.35,North,5,3.5,3.5,56,0.00,CLR,,0.00,WeatherDisplay:10.37,2013-02-20 15:51:00,
2013-02-20 09:56:00,27.3,14.1,30.35,North,5,0.0,0.0,57,0.00,CLR,,0.00,WeatherDisplay:10.37,2013-02-20 15:56:00,
2013-02-20 10:01:00,27.5,14.6,30.35,NNW,336,3.5,3.5,58,0.00,CLR,,0.00,WeatherDisplay:10.37,2013-02-20 16:01:00,
2013-02-20 10:06:00,27.8,14.5,30.35,NNW,329,1.1,1.1,57,0.00,CLR,,0.00,WeatherDisplay:10.37,2013-02-20 16:06:00,
2013-02-20 10:11:00,27.8,14.9,30.35,NNW,331,1.1,1.1,58,0.00,CLR,,0.00,WeatherDisplay:10.37,2013-02-20 16:11:00,
2013-02-20 10:16:00,28.0,14.7,30.35,NNW,333,1.1,0.0,57,0.00,CLR,,0.00,WeatherDisplay:10.37,2013-02-20 16:16:00,
2013-02-20 10:21:00,28.1,14.4,30.36,NNW,340,3.5,3.5,56,0.00,CLR,,0.00,WeatherDisplay:10.37,2013-02-20 16:21:00,
2013-02-20 10:26:00,27.9,14.2,30.36,NNE,13,2.3,2.3,56,0.00,CLR,,0.00,WeatherDisplay:10.37,2013-02-20 16:26:00,
2013-02-20 10:31:00,27.8,14.5,30.36,NNE,13,2.0,2.0,57,0.00,CLR,,0.00,WeatherDisplay:10.37,2013-02-20 16:31:00,
2013-02-20 10:36:00,27.7,14.0,30.36,NNE,13,1.1,0.0,56,0.00,CLR,,0.00,WeatherDisplay:10.37,2013-02-20 16:36:00,
2013-02-20 10:41:00,27.8,14.1,30.36,NNE,17,3.5,3.5,56,0.00,CLR,,0.00,WeatherDisplay:10.37,2013-02-20 16:41:00,
2013-02-20 10:46:00,28.0,14.7,30.36,NNW,335,3.0,3.0,57,0.00,CLR,,0.00,WeatherDisplay:10.37,2013-02-20 16:46:00,
2013-02-20 10:51:00,28.1,14.8,30.36,NW,309,2.3,2.3,57,0.00,CLR,,0.00,WeatherDisplay:10.37,2013-02-20 16:51:00,
2013-02-20 10:56:00,28.3,14.6,30.36,NW,324,1.1,1.1,56,0.00,CLR,,0.00,WeatherDisplay:10.37,2013-02-20 16:56:00,
2013-02-20 11:01:00,28.5,14.8,30.36,NW,307,2.3,2.3,56,0.00,CLR,,0.00,WeatherDisplay:10.37,2013-02-20 17:01:00,
2013-02-20 11:06:00,28.5,14.4,30.35,NNW,330,2.3,2.3,55,0.00,CLR,,0.00,WeatherDisplay:10.37,2013-02-20 17:06:00,
2013-02-20 11:11:00,28.6,14.9,30.35,NNW,346,2.3,2.3,56,0.00,CLR,,0.00,WeatherDisplay:10.37,2013-02-20 17:11:00,
2013-02-20 11:16:00,28.7,15.0,30.34,NNE,21,3.5,3.5,56,0.00,CLR,,0.00,WeatherDisplay:10.37,2013-02-20 17:16:00,
2013-02-20 11:21:00,28.7,14.1,30.34,NNW,338,2.3,2.3,54,0.00,CLR,,0.00,WeatherDisplay:10.37,2013-02-20 17:21:00,
2013-02-20 11:26:00,28.7,14.6,30.33,North,5,3.5,3.5,55,0.00,CLR,,0.00,WeatherDisplay:10.37,2013-02-20 17:26:00,
2013-02-20 11:31:00,28.7,13.7,30.33,NNW,333,3.5,3.5,53,0.00,CLR,,0.00,WeatherDisplay:10.37,2013-02-20 17:31:00,
2013-02-20 11:36:00,28.7,15.0,30.33,NW,321,2.3,2.3,56,0.00,CLR,,0.00,WeatherDisplay:10.37,2013-02-20 17:36:00,
2013-02-20 11:41:00,28.7,14.1,30.34,North,5,3.5,3.5,54,0.00,CLR,,0.00,WeatherDisplay:10.37,2013-02-20 17:41:00,
2013-02-20 11:46:00,28.7,14.6,30.33,North,5,0.0,0.0,55,0.00,CLR,,0.00,WeatherDisplay:10.37,2013-02-20 17:46:00,
2013-02-20 11:51:00,28.7,13.7,30.33,North,5,3.5,3.5,53,0.00,CLR,,0.00,WeatherDisplay:10.37,2013-02-20 17:51:00,
2013-02-20 11:56:00,28.7,13.7,30.34,NW,321,3.5,3.5,53,0.00,CLR,,0.00,WeatherDisplay:10.37,2013-02-20 17:56:00,
2013-02-20 12:01:00,28.8,14.2,30.34,North,360,2.3,2.3,54,0.00,CLR,,0.00,WeatherDisplay:10.37,2013-02-20 18:01:00,
2013-02-20 12:06:00,28.7,14.1,30.34,NNE,15,1.1,1.1,54,0.00,CLR,,0.00,WeatherDisplay:10.37,2013-02-20 18:06:00,
2013-02-20 12:11:00,28.9,14.7,30.34,NNE,15,0.0,0.0,55,0.00,CLR,,0.00,WeatherDisplay:10.37,2013-02-20 18:11:00,
2013-02-20 12:16:00,29.1,14.5,30.34,NW,325,2.3,2.3,54,0.00,CLR,,0.00,WeatherDisplay:10.37,2013-02-20 18:16:00,
2013-02-20 12:21:00,29.2,14.6,30.34,North,355,3.5,3.5,54,0.00,CLR,,0.00,WeatherDisplay:10.37,2013-02-20 18:21:00,
2013-02-20 12:26:00,29.2,14.6,30.34,NW,323,3.5,3.5,54,0.00,CLR,,0.00,WeatherDisplay:10.37,2013-02-20 18:26:00,
2013-02-20 12:31:00,29.2,14.2,30.34,NNW,346,3.5,3.5,53,0.00,CLR,,0.00,WeatherDisplay:10.37,2013-02-20 18:31:00,
2013-02-20 12:36:00,29.1,14.1,30.34,North,351,3.5,3.5,53,0.00,CLR,,0.00,WeatherDisplay:10.37,2013-02-20 18:36:00,
2013-02-20 12:41:00,29.1,14.1,30.34,North,360,3.5,3.5,53,0.00,CLR,,0.00,WeatherDisplay:10.37,2013-02-20 18:41:00,
2013-02-20 12:46:00,29.1,14.9,30.34,North,360,1.1,1.1,55,0.00,CLR,,0.00,WeatherDisplay:10.37,2013-02-20 18:46:00,
2013-02-20 12:51:00,29.3,15.1,30.34,North,355,0.0,0.3,55,0.00,CLR,,0.00,WeatherDisplay:10.37,2013-02-20 18:51:00,
2013-02-20 12:56:00,29.4,14.4,30.34,NNW,341,1.1,1.1,53,0.00,CLR,,0.00,WeatherDisplay:10.37,2013-02-20 18:56:00,
2013-02-20 13:02:00,29.3,15.1,30.33,North,355,1.1,1.1,55,0.00,CLR,,0.00,WeatherDisplay:10.37,2013-02-20 19:02:00,
2013-02-20 13:07:00,29.3,14.7,30.33,North,355,0.0,0.0,54,0.00,CLR,,0.00,WeatherDisplay:10.37,2013-02-20 19:07:00,
2013-02-20 13:12:00,29.4,15.2,30.33,North,355,1.1,1.1,55,0.00,CLR,,0.00,WeatherDisplay:10.37,2013-02-20 19:12:00,
2013-02-20 13:17:00,29.4,15.2,30.33,North,355,1.1,1.1,55,0.00,CLR,,0.00,WeatherDisplay:10.37,2013-02-20 19:17:00,
2013-02-20 13:22:00,29.4,15.2,30.32,North,355,0.0,0.0,55,0.00,CLR,,0.00,WeatherDisplay:10.37,2013-02-20 19:22:00,
2013-02-20 13:27:00,29.4,15.2,30.32,NNW,334,2.3,2.3,55,0.00,CLR,,0.00,WeatherDisplay:10.37,2013-02-20 19:27:00,
2013-02-20 13:32:00,29.5,15.3,30.32,NW,326,0.0,0.1,55,0.00,CLR,,0.00,WeatherDisplay:10.37,2013-02-20 19:32:00,
2013-02-20 13:37:00,29.4,14.8,30.32,NNW,340,3.5,3.5,54,0.00,CLR,,0.00,WeatherDisplay:10.37,2013-02-20 19:37:00,
2013-02-20 13:42:00,29.3,14.7,30.32,NNW,336,0.0,0.0,54,0.00,CLR,,0.00,WeatherDisplay:10.37,2013-02-20 19:42:00,
2013-02-20 13:47:00,29.3,14.7,30.33,North,355,1.1,1.1,54,0.00,CLR,,0.00,WeatherDisplay:10.37,2013-02-20 19:47:00,
2013-02-20 13:52:00,29.3,14.7,30.32,North,355,0.0,0.0,54,0.00,CLR,,0.00,WeatherDisplay:10.37,2013-02-20 19:52:00,
2013-02-20 13:57:00,29.3,14.7,30.31,North,355,0.0,0.0,54,0.00,CLR,,0.00,WeatherDisplay:10.37,2013-02-20 19:57:00,
2013-02-20 14:02:00,29.5,15.7,30.31,North,355,2.3,0.0,56,0.00,CLR,,0.00,WeatherDisplay:10.37,2013-02-20 20:02:00,
2013-02-20 14:07:00,29.7,15.5,30.29,North,355,1.1,1.1,55,0.00,CLR,,0.00,WeatherDisplay:10.37,2013-02-20 20:07:00,
2013-02-20 14:12:00,29.7,15.9,30.28,NNE,28,3.5,3.5,56,0.00,CLR,,0.00,WeatherDisplay:10.37,2013-02-20 20:12:00,
2013-02-20 14:17:00,29.7,15.5,30.28,North,5,1.0,0.0,55,0.00,CLR,,0.00,WeatherDisplay:10.37,2013-02-20 20:17:00,
2013-02-20 14:22:00,29.7,15.1,30.27,North,11,3.5,3.5,54,0.00,CLR,,0.00,WeatherDisplay:10.37,2013-02-20 20:22:00,
2013-02-20 14:27:00,29.7,15.9,30.26,North,5,1.1,1.1,56,0.00,CLR,,0.00,WeatherDisplay:10.37,2013-02-20 20:27:00,
2013-02-20 14:32:00,30.1,16.3,30.25,North,9,1.1,1.1,56,0.00,CLR,,0.00,WeatherDisplay:10.37,2013-02-20 20:32:00,
2013-02-20 14:37:00,30.5,16.7,30.25,North,5,3.5,3.5,56,0.00,CLR,,0.00,WeatherDisplay:10.37,2013-02-20 20:37:00,
2013-02-20 14:42:00,30.6,16.7,30.26,North,5,1.1,1.1,56,0.00,CLR,,0.00,WeatherDisplay:10.37,2013-02-20 20:42:00,
2013-02-20 14:47:00,30.6,16.3,30.27,North,5,1.1,1.1,55,0.00,CLR,,0.00,WeatherDisplay:10.37,2013-02-20 20:47:00,
2013-02-20 14:52:00,31.2,17.3,30.29,NNW,339,1.1,1.1,56,0.00,CLR,,0.00,WeatherDisplay:10.37,2013-02-20 20:52:00,
2013-02-20 14:57:00,31.9,17.1,30.28,NNE,18,2.3,2.3,54,0.00,CLR,,0.00,WeatherDisplay:10.37,2013-02-20 20:57:00,
2013-02-20 15:02:00,32.3,17.5,30.27,North,360,4.6,4.6,54,0.00,CLR,,0.00,WeatherDisplay:10.37,2013-02-20 21:02:00,
2013-02-20 15:07:00,32.4,17.2,30.27,NE,34,2.3,2.3,53,0.00,CLR,,0.00,WeatherDisplay:10.37,2013-02-20 21:07:00,
2013-02-20 15:12:00,32.3,16.6,30.27,NNE,14,1.1,0.0,52,0.00,CLR,,0.00,WeatherDisplay:10.37,2013-02-20 21:12:00,
2013-02-20 15:17:00,32.1,16.9,30.27,NNE,22,1.1,1.1,53,0.00,CLR,,0.00,WeatherDisplay:10.37,2013-02-20 21:17:00,
2013-02-20 15:22:00,32.2,17.0,30.26,North,11,2.0,2.0,53,0.00,CLR,,0.00,WeatherDisplay:10.37,2013-02-20 21:22:00,
2013-02-20 15:27:00,32.4,17.2,30.25,NNW,335,3.5,3.5,53,0.00,CLR,,0.00,WeatherDisplay:10.37,2013-02-20 21:27:00,
2013-02-20 15:32:00,32.6,17.3,30.26,NNE,32,3.5,3.5,53,0.00,CLR,,0.00,WeatherDisplay:10.37,2013-02-20 21:32:00,
2013-02-20 15:37:00,32.8,17.5,30.25,NNE,30,4.6,4.6,53,0.00,CLR,,0.00,WeatherDisplay:10.37,2013-02-20 21:37:00,
2013-02-20 15:42:00,32.6,17.3,30.25,NNE,33,3.5,3.5,53,0.00,CLR,,0.00,WeatherDisplay:10.37,2013-02-20 21:42:00,
2013-02-20 15:47:00,32.3,17.5,30.24,NNE,28,4.0,4.0,54,0.00,CLR,,0.00,WeatherDisplay:10.37,2013-02-20 21:47:00,
2013-02-20 15:52:00,31.6,16.4,30.25,North,5,4.6,4.6,53,0.00,CLR,,0.00,WeatherDisplay:10.37,2013-02-20 21:52:00,
2013-02-20 15:57:00,31.4,17.1,30.25,North,360,2.3,2.3,55,0.00,CLR,,0.00,WeatherDisplay:10.37,2013-02-20 21:57:00,
2013-02-20 16:02:00,31.4,17.1,30.25,NE,37,3.0,3.0,55,0.00,CLR,,0.00,WeatherDisplay:10.37,2013-02-20 22:02:00,
2013-02-20 16:07:00,31.4,17.5,30.25,NE,42,2.3,2.3,56,0.00,CLR,,0.00,WeatherDisplay:10.37,2013-02-20 22:07:00,
2013-02-20 16:12:00,31.4,17.5,30.25,NE,34,3.5,3.5,56,0.00,CLR,,0.00,WeatherDisplay:10.37,2013-02-20 22:12:00,
2013-02-20 16:17:00,31.8,18.3,30.24,NNE,28,2.3,2.3,57,0.00,CLR,,0.00,WeatherDisplay:10.37,2013-02-20 22:17:00,
2013-02-20 16:22:00,31.8,17.9,30.24,NNE,15,2.3,2.3,56,0.00,CLR,,0.00,WeatherDisplay:10.37,2013-02-20 22:22:00,
2013-02-20 16:27:00,31.4,17.1,30.24,North,9,4.6,4.6,55,0.00,CLR,,0.00,WeatherDisplay:10.37,2013-02-20 22:27:00,
2013-02-20 16:32:00,31.2,17.7,30.25,NNE,21,2.3,2.3,57,0.00,CLR,,0.00,WeatherDisplay:10.37,2013-02-20 22:32:00,
2013-02-20 16:37:00,31.2,17.3,30.24,NE,38,3.5,3.5,56,0.00,CLR,,0.00,WeatherDisplay:10.37,2013-02-20 22:37:00,
2013-02-20 16:42:00,31.2,17.3,30.25,NE,37,2.3,2.3,56,0.00,CLR,,0.00,WeatherDisplay:10.37,2013-02-20 22:42:00,
2013-02-20 16:47:00,31.2,17.3,30.25,NNE,17,1.1,1.1,56,0.00,CLR,,0.00,WeatherDisplay:10.37,2013-02-20 22:47:00,
2013-02-20 16:52:00,31.2,17.7,30.25,NNE,20,1.1,1.1,57,0.00,CLR,,0.00,WeatherDisplay:10.37,2013-02-20 22:52:00,
2013-02-20 16:57:00,31.2,17.7,30.25,NNE,20,2.3,2.3,57,0.00,CLR,,0.00,WeatherDisplay:10.37,2013-02-20 22:57:00,
2013-02-20 17:02:00,31.1,17.6,30.24,NNE,19,1.1,1.1,57,0.00,CLR,,0.00,WeatherDisplay:10.37,2013-02-20 23:02:00,
2013-02-20 17:07:00,31.0,17.5,30.24,NNE,14,1.1,0.0,57,0.00,CLR,,0.00,WeatherDisplay:10.37,2013-02-20 23:07:00,
2013-02-20 17:12:00,31.0,17.9,30.24,North,351,1.1,1.1,58,0.00,CLR,,0.00,WeatherDisplay:10.37,2013-02-20 23:12:00,
2013-02-20 17:17:00,31.0,17.9,30.25,North,351,1.0,1.0,58,0.00,CLR,,0.00,WeatherDisplay:10.37,2013-02-20 23:17:00,
2013-02-20 17:22:00,30.9,17.8,30.25,North,351,2.3,2.3,58,0.00,CLR,,0.00,WeatherDisplay:10.37,2013-02-20 23:22:00,
2013-02-20 17:27:00,30.9,17.8,30.25,North,355,1.1,1.1,58,0.00,CLR,,0.00,WeatherDisplay:10.37,2013-02-20 23:27:00,
2013-02-20 17:32:00,30.8,17.7,30.25,North,9,0.0,0.2,58,0.00,CLR,,0.00,WeatherDisplay:10.37,2013-02-20 23:32:00,
2013-02-20 17:37:00,30.8,17.7,30.25,North,9,0.0,0.1,58,0.00,CLR,,0.00,WeatherDisplay:10.37,2013-02-20 23:37:00,
2013-02-20 17:42:00,30.8,18.1,30.25,North,9,0.0,0.0,59,0.00,CLR,,0.00,WeatherDisplay:10.37,2013-02-20 23:42:00,
2013-02-20 17:47:00,30.6,18.0,30.25,North,9,1.1,0.0,59,0.00,CLR,,0.00,WeatherDisplay:10.37,2013-02-20 23:47:00,
2013-02-20 17:53:00,30.5,18.3,30.25,NNE,14,0.0,0.0,60,0.00,CLR,,0.00,WeatherDisplay:10.37,2013-02-20 23:53:00,
2013-02-20 17:58:00,30.3,18.1,30.26,North,11,0.0,0.0,60,0.00,CLR,,0.00,WeatherDisplay:10.37,2013-02-20 23:58:00,
2013-02-20 18:03:00,30.2,18.0,30.26,North,11,0.0,0.0,60,0.00,CLR,,0.00,WeatherDisplay:10.37,2013-02-21 00:03:00,
2013-02-20 18:08:00,30.1,17.9,30.26,North,11,1.1,1.1,60,0.00,CLR,,0.00,WeatherDisplay:10.37,2013-02-21 00:08:00,
2013-02-20 18:13:00,29.9,17.7,30.25,North,11,0.0,0.0,60,0.00,CLR,,0.00,WeatherDisplay:10.37,2013-02-21 00:13:00,
2013-02-20 18:18:00,29.8,17.6,30.26,North,11,0.0,0.0,60,0.00,CLR,,0.00,WeatherDisplay:10.37,2013-02-21 00:18:00,
2013-02-20 18:23:00,29.7,17.5,30.26,North,11,1.1,1.1,60,0.00,CLR,,0.00,WeatherDisplay:10.37,2013-02-21 00:23:00,
2013-02-20 18:28:00,29.6,17.8,30.27,North,11,0.0,0.0,61,0.00,CLR,,0.00,WeatherDisplay:10.37,2013-02-21 00:28:00,
2013-02-20 18:33:00,29.5,17.7,30.27,North,11,1.1,1.1,61,0.00,CLR,,0.00,WeatherDisplay:10.37,2013-02-21 00:33:00,
2013-02-20 18:38:00,29.3,17.5,30.27,North,11,1.1,0.0,61,0.00,CLR,,0.00,WeatherDisplay:10.37,2013-02-21 00:38:00,
2013-02-20 18:43:00,29.3,17.5,30.27,North,11,1.1,0.0,61,0.00,CLR,,0.00,WeatherDisplay:10.37,2013-02-21 00:43:00,
2013-02-20 18:48:00,29.2,17.8,30.26,North,11,1.1,1.1,62,0.00,CLR,,0.00,WeatherDisplay:10.37,2013-02-21 00:48:00,
2013-02-20 18:53:00,29.1,17.7,30.26,NNE,16,2.3,2.3,62,0.00,CLR,,0.00,WeatherDisplay:10.37,2013-02-21 00:53:00,
2013-02-20 18:58:00,29.1,18.1,30.26,NNE,16,2.3,2.3,63,0.00,CLR,,0.00,WeatherDisplay:10.37,2013-02-21 00:58:00,
2013-02-20 19:03:00,29.0,18.0,30.26,NNE,14,2.0,2.0,63,0.00,CLR,,0.00,WeatherDisplay:10.37,2013-02-21 01:03:00,
2013-02-20 19:08:00,28.9,18.2,30.26,NNE,16,1.1,1.1,64,0.00,CLR,,0.00,WeatherDisplay:10.37,2013-02-21 01:08:00,
2013-02-20 19:13:00,28.9,18.2,30.26,NNE,23,0.0,0.0,64,0.00,CLR,,0.00,WeatherDisplay:10.37,2013-02-21 01:13:00,
2013-02-20 19:18:00,28.8,18.5,30.26,NNE,23,0.0,0.0,65,0.00,CLR,,0.00,WeatherDisplay:10.37,2013-02-21 01:18:00,
2013-02-20 19:23:00,28.7,18.4,30.26,NNE,23,0.0,0.0,65,0.00,CLR,,0.00,WeatherDisplay:10.37,2013-02-21 01:23:00,
2013-02-20 19:28:00,28.7,18.4,30.25,NNE,19,1.1,1.1,65,0.00,CLR,,0.00,WeatherDisplay:10.37,2013-02-21 01:28:00,
2013-02-20 19:33:00,28.5,18.2,30.25,NNE,19,2.3,0.0,65,0.00,CLR,,0.00,WeatherDisplay:10.37,2013-02-21 01:33:00,
2013-02-20 19:38:00,28.5,17.9,30.25,NNE,25,2.3,2.3,64,0.00,CLR,,0.00,WeatherDisplay:10.37,2013-02-21 01:38:00,
2013-02-20 19:43:00,28.4,18.1,30.25,NNE,26,0.0,0.0,65,0.00,CLR,,0.00,WeatherDisplay:10.37,2013-02-21 01:43:00,
2013-02-20 19:48:00,28.3,18.0,30.25,NNE,26,2.3,2.3,65,0.00,CLR,,0.00,WeatherDisplay:10.37,2013-02-21 01:48:00,
2013-02-20 19:53:00,28.2,17.9,30.25,NNE,26,1.1,1.1,65,0.00,CLR,,0.00,WeatherDisplay:10.37,2013-02-21 01:53:00,
2013-02-20 19:58:00,28.1,17.8,30.26,NNE,26,0.0,0.0,65,0.00,CLR,,0.00,WeatherDisplay:10.37,2013-02-21 01:58:00,
2013-02-20 20:03:00,28.1,17.8,30.26,NNE,26,1.1,0.0,65,0.00,CLR,,0.00,WeatherDisplay:10.37,2013-02-21 02:03:00,
2013-02-20 20:08:00,28.1,17.8,30.26,NNE,26,0.0,0.0,65,0.00,CLR,,0.00,WeatherDisplay:10.37,2013-02-21 02:08:00,
2013-02-20 20:13:00,28.0,18.1,30.26,NNE,26,1.1,0.0,66,0.00,CLR,,0.00,WeatherDisplay:10.37,2013-02-21 02:13:00,
2013-02-20 20:18:00,28.0,18.1,30.26,NNE,26,0.0,0.0,66,0.00,CLR,,0.00,WeatherDisplay:10.37,2013-02-21 02:18:00,
2013-02-20 20:23:00,28.0,18.1,30.26,NNE,26,1.1,0.0,66,0.00,CLR,,0.00,WeatherDisplay:10.37,2013-02-21 02:23:00,
2013-02-20 20:28:00,27.9,18.0,30.27,NNE,15,2.3,0.0,66,0.00,CLR,,0.00,WeatherDisplay:10.37,2013-02-21 02:28:00,
2013-02-20 20:33:00,27.9,18.0,30.27,NNE,15,0.0,0.0,66,0.00,CLR,,0.00,WeatherDisplay:10.37,2013-02-21 02:33:00,
2013-02-20 20:38:00,27.9,18.4,30.26,NNE,15,1.1,1.1,67,0.00,CLR,,0.00,WeatherDisplay:10.37,2013-02-21 02:38:00,
2013-02-20 20:43:00,27.9,18.4,30.26,NNE,19,1.1,1.1,67,0.00,CLR,,0.00,WeatherDisplay:10.37,2013-02-21 02:43:00,
2013-02-20 20:48:00,27.9,18.4,30.26,NNE,21,1.1,1.1,67,0.00,CLR,,0.00,WeatherDisplay:10.37,2013-02-21 02:48:00,
2013-02-20 20:53:00,27.8,18.3,30.26,NE,34,1.1,0.0,67,0.00,CLR,,0.00,WeatherDisplay:10.37,2013-02-21 02:53:00,
2013-02-20 20:58:00,27.8,18.6,30.26,NE,34,2.3,2.3,68,0.00,CLR,,0.00,WeatherDisplay:10.37,2013-02-21 02:58:00,
2013-02-20 21:03:00,27.8,18.6,30.27,NE,34,0.0,0.0,68,0.00,CLR,,0.00,WeatherDisplay:10.37,2013-02-21 03:03:00,
2013-02-20 21:08:00,27.8,18.9,30.26,NE,34,1.1,1.1,69,0.00,CLR,,0.00,WeatherDisplay:10.37,2013-02-21 03:08:00,
2013-02-20 21:13:00,27.7,18.8,30.26,NNE,33,3.0,3.0,69,0.00,CLR,,0.00,WeatherDisplay:10.37,2013-02-21 03:13:00,
2013-02-20 21:18:00,27.6,18.8,30.26,NNE,33,1.1,1.1,69,0.00,CLR,,0.00,WeatherDisplay:10.37,2013-02-21 03:18:00,
2013-02-20 21:23:00,27.6,18.8,30.26,NNE,33,2.3,2.3,69,0.00,CLR,,0.00,WeatherDisplay:10.37,2013-02-21 03:23:00,
2013-02-20 21:28:00,27.6,18.8,30.26,NNE,30,1.1,1.1,69,0.00,CLR,,0.00,WeatherDisplay:10.37,2013-02-21 03:28:00,
2013-02-20 21:33:00,27.5,19.0,30.26,NNE,31,1.1,1.1,70,0.00,CLR,,0.00,WeatherDisplay:10.37,2013-02-21 03:33:00,
2013-02-20 21:38:00,27.4,18.9,30.26,NE,34,1.1,1.1,70,0.00,CLR,,0.00,WeatherDisplay:10.37,2013-02-21 03:38:00,
2013-02-20 21:43:00,27.2,18.7,30.25,NNE,33,1.1,1.1,70,0.00,CLR,,0.00,WeatherDisplay:10.37,2013-02-21 03:43:00,
2013-02-20 21:48:00,27.2,18.7,30.25,NE,34,2.3,2.3,70,0.00,CLR,,0.00,WeatherDisplay:10.37,2013-02-21 03:48:00,
2013-02-20 21:53:00,27.1,18.9,30.25,NE,34,1.1,1.1,71,0.00,CLR,,0.00,WeatherDisplay:10.37,2013-02-21 03:53:00,
2013-02-20 21:58:00,27.1,18.9,30.25,NE,34,3.5,3.5,71,0.00,CLR,,0.00,WeatherDisplay:10.37,2013-02-21 03:58:00,
2013-02-20 22:03:00,27.1,18.9,30.25,NE,34,1.1,1.1,71,0.00,CLR,,0.00,WeatherDisplay:10.37,2013-02-21 04:03:00,
2013-02-20 22:08:00,27.1,18.9,30.26,NE,34,2.3,2.3,71,0.00,CLR,,0.00,WeatherDisplay:10.37,2013-02-21 04:08:00,
2013-02-20 22:13:00,27.1,18.9,30.26,NE,34,1.1,1.1,71,0.00,CLR,,0.00,WeatherDisplay:10.37,2013-02-21 04:13:00,
2013-02-20 22:18:00,27.0,18.8,30.26,NE,36,0.0,0.3,71,0.00,CLR,,0.00,WeatherDisplay:10.37,2013-02-21 04:18:00,
2013-02-20 22:23:00,27.0,19.2,30.26,NE,36,1.1,1.1,72,0.00,CLR,,0.00,WeatherDisplay:10.37,2013-02-21 04:23:00,
2013-02-20 22:28:00,26.9,19.1,30.26,NNE,19,2.3,2.3,72,0.00,CLR,,0.00,WeatherDisplay:10.37,2013-02-21 04:28:00,
2013-02-20 22:33:00,26.9,19.1,30.26,NNE,31,1.1,1.1,72,0.00,CLR,,0.00,WeatherDisplay:10.37,2013-02-21 04:33:00,
2013-02-20 22:38:00,26.9,19.1,30.25,NNE,18,1.1,1.1,72,0.00,CLR,,0.00,WeatherDisplay:10.37,2013-02-21 04:38:00,
2013-02-20 22:43:00,26.9,19.1,30.25,NNE,17,0.0,0.4,72,0.00,CLR,,0.00,WeatherDisplay:10.37,2013-02-21 04:43:00,
2013-02-20 22:48:00,26.9,19.4,30.25,NNE,24,3.5,3.5,73,0.00,CLR,,0.00,WeatherDisplay:10.37,2013-02-21 04:48:00,
2013-02-20 22:53:00,26.9,19.4,30.26,NNE,25,2.3,2.3,73,0.00,CLR,,0.00,WeatherDisplay:10.37,2013-02-21 04:53:00,
2013-02-20 22:59:00,26.9,19.4,30.25,NNE,25,3.5,3.5,73,0.00,CLR,,0.00,WeatherDisplay:10.37,2013-02-21 04:59:00,
2013-02-20 23:00:00,26.9,19.1,30.25,NNE,17,2.3,2.3,72,0.00,CLR,,0.00,WeatherDisplay:10.37,2013-02-21 05:00:00,
2013-02-20 23:05:00,26.9,19.4,30.25,NNE,19,2.3,2.3,73,0.00,CLR,,0.00,WeatherDisplay:10.37,2013-02-21 05:05:00,
2013-02-20 23:10:00,26.9,19.4,30.26,NNE,17,2.3,2.3,73,0.00,CLR,,0.00,WeatherDisplay:10.37,2013-02-21 05:10:00,
2013-02-20 23:15:00,26.9,19.4,30.26,NNE,18,1.1,1.1,73,0.00,CLR,,0.00,WeatherDisplay:10.37,2013-02-21 05:15:00,
2013-02-20 23:20:00,26.9,19.4,30.26,NNE,26,2.3,2.3,73,0.00,CLR,,0.00,WeatherDisplay:10.37,2013-02-21 05:20:00,
2013-02-20 23:25:00,26.9,19.4,30.25,NNE,27,1.1,0.0,73,0.00,CLR,,0.00,WeatherDisplay:10.37,2013-02-21 05:25:00,
2013-02-20 23:30:00,26.9,19.4,30.26,NNE,27,1.1,0.0,73,0.00,CLR,,0.00,WeatherDisplay:10.37,2013-02-21 05:30:00,
2013-02-20 23:35:00,26.8,19.6,30.26,NNE,30,1.0,1.0,74,0.00,CLR,,0.00,WeatherDisplay:10.37,2013-02-21 05:35:00,
2013-02-20 23:40:00,26.8,19.6,30.26,NNE,22,1.1,1.1,74,0.00,CLR,,0.00,WeatherDisplay:10.37,2013-02-21 05:40:00,
2013-02-20 23:45:00,26.8,19.6,30.26,NNE,22,1.1,1.1,74,0.00,CLR,,0.00,WeatherDisplay:10.37,2013-02-21 05:45:00,
2013-02-20 23:50:00,26.7,19.5,30.26,NNE,22,2.3,2.3,74,0.00,CLR,,0.00,WeatherDisplay:10.37,2013-02-21 05:50:00,
2013-02-20 23:55:00,26.6,19.4,30.26,NNE,23,1.1,1.1,74,0.00,CLR,,0.00,WeatherDisplay:10.37,2013-02-21 05:55:00,